DELTA 1 DEB, 10714

Orbit data source: Space-Track

DELTA 1 DEB, 10714 is space debris in LEO originally from a launch on Thu, 29 Jul 1976 UTC launched from the Air Force Western Test Range (AFWTR). Debris objects in space refer to the collection of defunct objects orbiting the Earth. Examples of debris include non-operational satellites, rocket bodies, and fragments generated from explosions, collisions, or faulty payload assembly.

Loading next visibility...
Identifier
10714, 1976-077AK
Orbit
LEO
Country
Flag of USUS
Related business
Manufacturer
Unknown
Mission
Spacecraft
Bus & Motor
Unknown
Mass
Unknown
Launch date (UTC)
1976-07-29 (49 years ago)
Launch vehicle
Unknown
Launch site
Air Force Western Test Range (AFWTR)
Object type
Payload
Rocket body
Debris
Shape & HBR
Unknown shape, 0.1 m
Radar Cross Section
Medium (>0.1 m² and <1 m²)

Expand to show TLE details & history
Last TLE update: 13 hours ago

TLE from 13 hours ago
0 DELTA 1 DEB
1 10714U 76077AK  25292.22406148  .00002204  00000-0  30024-1 0  9995
2 10714 103.3540 201.3586 0622080 333.3269 183.7693 11.54421867 65235
Epoch: 2025-10-19T05:22Z
TLE epoch observation values (Epoch: 2025-10-19T05:22:38.911Z)
Latitude
22.68697°
Longitude
-81.5771°
Altitude
2,407.409 km
Speed
6.526 km/s
True Right ascension
01h 48m 06s
True Declination
22° 35' 16"
Sunlit
Object was in full shadow at epoch
Visualization orbit readout
Latitude
Unknown
Longitude
Unknown
Altitude
Unknown
Speed
Unknown
Apparent Right ascension
Unknown
Apparent Declination
Unknown
Sunlit
N/A
Visualization observer readout
Local Sidereal Time
12:55:43
Azimuth
Unknown
Elevation
Unknown
Doppler factor
Unknown
Orbital elements
Apogee altitude
2,403.669 km
Perigee altitude
1,375.06 km
Semi-major axis
8,267.501 km
Eccentricity
0.06221
Inclination
103.354°
RAAN
201.3586°
Arg. of periapsis
333.3269°
True anomaly
183.33451°
Mean anomaly
183.7693°
Eccentric anomaly
183.54868°
Mean motion
2.88723 °/min
Orbital period
124.69 mins
BSTAR
0.030024
Loading maneuver chart data...
Computing Atmospheric mass density...
Loading historical data...
Loading historical data...
Loading historical data...
Loading historical data...
Loading historical data...
Loading historical data...
Loading historical data...

Documentation

Showing up to 5 results
|